Find Starlink 35324

NORAD ID: 65838 Int'l Des: 2025-221 Owner: SPXS Country: US Constellation: starlink operational
LEOCIRCULAR

Live-Position

3D-Globus wird geladen...

Über Starlink 35324

Beschreibung wird geladen...

Nächste Überflüge

Passes for default location (London). Set your location on the main map for personalized predictions.

Höhenverlauf

Loading altitude history...

Zweizeiliger Elementsatz

1 65838U 25221R 26105.17383365 .00007030 00000-0 24915-3 0 9996
2 65838 53.1580 279.2765 0000549 9.6555 350.4456 15.30211752 30311
Epoch: 15. Apr. 2026 • Age: 6 hours

Aktueller Status

Höhe 474.9 km
Geschwindigkeit 7.63 km/s
Subsatellitenpunkt 12.90°N, 73.41°W
Startdatum 29. Sept. 2025
Alter 0.5 years
Typ internet

Technische Details

Klassifizierung Payload
Masse 575.00 kg
Trockenmasse 530.00 kg
Gesamtmasse 575.00 kg
Länge 0.30 m
Durchmesser 4.10 m
Spannweite 29.00 m
Form Box + pan
Hersteller SPXS
Bus-Typ Starlink V2MO
Phasenstatus In Orbit
Besitzer/Staat SPXS/US

Most Searched